Nantucket, MA

10:50 AM EDT on August 17, 2017 (GMT -0400)
Nantucket Memorial

Weather History for KACK - March, 2013

Change the Weather History Date:

Monday, March 4, 2013

  Actual Average Record
Temperature  
Mean Temperature 38 °F -  
Max Temperature 42 °F 41 °F 53 °F (1965)
Min Temperature 33 °F 27 °F 7 °F (1950)
Degree Days  
Heating Degree Days 28    
Moisture  
Dew Point 26 °F    
Average Humidity 66    
Maximum Humidity 82    
Minimum Humidity 47    
Precipitation  
Precipitation 0.00 in - - ()
Sea Level Pressure  
Sea Level Pressure 29.61 in    
Wind  
Wind Speed 14 mph (WNW)    
Max Wind Speed 20 mph    
Max Gust Speed 29 mph    
Visibility 10 miles    
Events      
Averages and records for this station are not official NWS values.
T = Trace of Precipitation, MM = Missing Value Source: NWS Daily Summary

Daily Weather History Graph

Daily Weather History Graph

Search for Another Location

Airport or City:

Trip Planner

Search our weather history database for the weather conditions in past years. The results will help you decide how hot, cold, wet, or windy it might be!

Date:

Astronomy

Mar. 04, 2013 Rise Set
Actual Time 6:09 AM EST 5:34 PM EST
Civil Twilight 5:41 AM EST 6:02 PM EST
Nautical Twilight 5:10 AM EST 6:34 PM EST
Astronomical Twilight 4:38 AM EST 7:06 PM EST
Moon 12:18 AM EST (3/4) 10:10 AM EST (3/4)
Length of Visible Light 12h 20m
Length of Day
11h 25m
Waning Gibbous, 52% of the Moon is Illuminated
Mar 4
Waning Gibbous
Mar 4
Last Quarter
Mar 11
New
Mar 19
First Quarter
Mar 27
Full

Hourly Weather History & Observations

Time (EST) Temp. Windchill Dew Point Humidity Pressure Visibility Wind Dir Wind Speed Gust Speed Precip Events Conditions
12:38 AM 35.6 °F 27.5 °F 30.2 °F 81% 29.58 in 10.0 mi WNW 11.5 mph - N/A   Overcast
12:53 AM 35.1 °F 26.4 °F 30.0 °F 82% 29.59 in 10.0 mi WNW 12.7 mph - N/A   Overcast
1:53 AM 35.1 °F 26.4 °F 30.0 °F 82% 29.59 in 10.0 mi WNW 12.7 mph - N/A   Overcast
2:50 AM 33.8 °F 24.3 °F 28.4 °F 81% 29.58 in 10.0 mi NW 13.8 mph - N/A   Overcast
2:53 AM 34.0 °F 24.6 °F 28.9 °F 82% 29.59 in 10.0 mi NW 13.8 mph - N/A   Overcast
4:02 AM 35.6 °F 27.1 °F 26.6 °F 70% 29.59 in 10.0 mi WNW 12.7 mph - N/A   Overcast
4:53 AM 34.0 °F 25.0 °F 27.0 °F 75% 29.61 in 10.0 mi WNW 12.7 mph - N/A   Overcast
5:53 AM 33.1 °F 23.4 °F 26.1 °F 75% 29.61 in 10.0 mi WNW 13.8 mph 20.7 mph N/A   Mostly Cloudy
6:53 AM 33.1 °F 23.4 °F 25.0 °F 72% 29.62 in 10.0 mi WNW 13.8 mph 20.7 mph N/A   Scattered Clouds
7:53 AM 34.0 °F 23.0 °F 24.1 °F 67% 29.62 in 10.0 mi WNW 18.4 mph 24.2 mph N/A   Clear
8:53 AM 36.0 °F 25.3 °F 25.0 °F 64% 29.62 in 10.0 mi WNW 19.6 mph 28.8 mph N/A   Clear
9:53 AM 36.0 °F 26.3 °F 23.0 °F 59% 29.61 in 10.0 mi WNW 16.1 mph 25.3 mph N/A   Clear
10:53 AM 37.9 °F 28.5 °F 24.1 °F 57% 29.60 in 10.0 mi WNW 17.3 mph 24.2 mph N/A   Clear
11:53 AM 39.9 °F 31.4 °F 24.1 °F 53% 29.59 in 10.0 mi WNW 16.1 mph 24.2 mph N/A   Clear
12:53 PM 42.1 °F 33.3 °F 23.0 °F 47% 29.58 in 10.0 mi West 19.6 mph 25.3 mph N/A   Clear
1:53 PM 42.1 °F 35.2 °F 25.0 °F 51% 29.57 in 10.0 mi West 12.7 mph 23.0 mph N/A   Overcast
2:53 PM 39.9 °F 31.4 °F 23.0 °F 51% 29.57 in 10.0 mi WNW 16.1 mph 21.9 mph N/A   Overcast
3:53 PM 39.9 °F 32.1 °F 24.1 °F 53% 29.57 in 10.0 mi NW 13.8 mph 24.2 mph N/A   Mostly Cloudy
4:53 PM 39.9 °F 32.1 °F 24.1 °F 53% 29.60 in 10.0 mi WNW 13.8 mph 26.5 mph N/A   Overcast
5:53 PM 37.9 °F 29.6 °F 25.0 °F 60% 29.61 in 10.0 mi WNW 13.8 mph - N/A   Overcast
6:53 PM 39.0 °F 31.0 °F 25.0 °F 57% 29.62 in 10.0 mi WNW 13.8 mph - N/A   Overcast
7:53 PM 39.0 °F 31.4 °F 27.0 °F 62% 29.65 in 10.0 mi NW 12.7 mph 23.0 mph N/A   Overcast
8:53 PM 37.0 °F 27.7 °F 27.0 °F 67% 29.66 in 10.0 mi NNW 16.1 mph 27.6 mph 0.00 in   Overcast
9:51 PM 35.6 °F 24.8 °F 26.6 °F 70% 29.67 in 10.0 mi NW 19.6 mph 26.5 mph N/A   Overcast
9:53 PM 36.0 °F 25.6 °F 26.1 °F 67% 29.67 in 10.0 mi NW 18.4 mph 26.5 mph N/A   Overcast
10:26 PM 35.6 °F 25.5 °F 26.6 °F 70% 29.67 in 10.0 mi NW 17.3 mph 28.8 mph N/A   Overcast
10:53 PM 36.0 °F 26.3 °F 26.1 °F 67% 29.68 in 10.0 mi NW 16.1 mph - N/A   Overcast
11:53 PM 36.0 °F 25.6 °F 25.0 °F 64% 29.69 in 10.0 mi NW 18.4 mph - N/A   Overcast